Simultaneous Nadir Overpasses (SNOs) Predictions

Prediction of SNOs between AQUA and METOP-A Satellite Orbit:

Table of predicted SNOs for the next 14.0 days since TLE Epoch: 3/1/2012
Index Date (AQUA) Time (AQUA) AQUA Lat,Lon Date (METOP-A) Time (METOP-A) METOP-A Lat,Lon Distance(km) Time Diff (sec)
1 03/03/2012 12:43:57 -73.34, 164.16 03/03/2012 12:42:48 -73.26, 162.26 61.24 69
2 03/03/2012 13:33:33 73.78, -29.15 03/03/2012 13:33:17 73.78, -29.21 2.01 16
3 03/03/2012 14:23:00 -73.86, 138.33 03/03/2012 14:23:58 -73.84, 138.26 3.01 58
4 03/06/2012 08:18:17 -73.72,-130.19 03/06/2012 08:17:03 -73.66,-130.42 9.12 74
5 03/06/2012 09:07:46 73.80, 37.26 03/06/2012 09:07:40 73.78, 37.20 2.88 6
6 03/06/2012 09:57:13 -73.87,-155.25 03/06/2012 09:58:20 -73.89,-155.21 2.78 67
7 03/09/2012 03:52:31 -73.76, -63.84 03/09/2012 03:51:25 -73.76, -63.78 1.80 66
8 03/09/2012 04:41:59 73.80, 103.72 03/09/2012 04:42:03 73.83, 103.72 3.49 4
9 03/09/2012 05:31:29 -74.02, -89.13 03/09/2012 05:32:41 -74.04, -88.45 21.07 72
10 03/11/2012 23:26:43 -73.74, 2.67 03/11/2012 23:25:49 -73.75, 2.61 2.88 54
11 03/12/2012 00:16:12 73.83, 170.11 03/12/2012 00:16:27 73.82, 170.10 0.68 15
12 03/12/2012 01:05:50 -74.46, -23.70 03/12/2012 01:06:56 -74.47, -20.94 82.27 66
13 03/14/2012 19:00:55 -73.79, 69.00 03/14/2012 19:00:11 -73.79, 69.10 3.10 44
14 03/14/2012 19:50:23 73.84,-123.46 03/14/2012 19:50:49 73.86,-123.40 2.83 26




NCC Satellite Simultaneous Nadir Overpasses (SNOs) Prediction Service
